STARLINK-32278, 60356

Orbit data source: Space-Track

STARLINK-32278, 60356 is a payload satellite owned by SpaceX/Seattle (US) in LEO that was launched on Sun, 04 Aug 2024 UTC via an FALCON 9 launch vehicle from the Air Force Western Test Range (AFWTR). Payload-class satellites include a variety of spacecraft equipped with specific instruments for various scientific and technological missions. These include communications satellites like Starlink; space stations such as the ISS; scientific satellites like the Hubble; Earth observation satellites from companies like Planet Labs, Umbra, and HawkEye 360; GPS; miniature CubeSats for education and research; and military/defense satellites.

Loading next visibility...
Identifier
60356, 2024-138B
Orbit
LEO
Country
Flag of USUS
Related business
Manufacturer
SpaceX/Seattle
Mission
Operational Commercial Communications
Bus & Motor
STARLINK V2M, Unknown motor
Mass
730 kg wet, ~700 kg dry
Launch date (UTC)
2024-08-04 (2 years ago)
Launch vehicle
FALCON 9
Launch site
Air Force Western Test Range (AFWTR)
Object type
Payload
Rocket body
Debris
Shape & HBR
Box + 2 Pan, 17.7 m
Radar Cross Section
33.884 m², Large (>1 m²)

Expand to show TLE details & history
Last TLE update: 1 day ago

TLE from 1 day ago
0 STARLINK-32278
1 60356U 24138B   26257.44621994  .00005551  00000-0  17548-3 0  9993
2 60356  53.1598 151.6641 0001558  93.5985 266.5196 15.34369705119543
Epoch: 2026-09-14T10:42Z
TLE epoch observation values (Epoch: 2026-09-14T10:42:33.402Z)
Latitude
-0.00002°
Longitude
-2.40149°
Altitude
463.759 km
Speed
7.636 km/s
True Right ascension
10h 06m 39s
True Declination
0° 00' 00"
Sunlit
Object was in daylight at epoch
Visualization orbit readout
Latitude
Unknown
Longitude
Unknown
Altitude
Unknown
Speed
Unknown
Apparent Right ascension
Unknown
Apparent Declination
Unknown
Sunlit
N/A
Visualization observer readout
Local Sidereal Time
09:25:22
Azimuth
Unknown
Elevation
Unknown
Doppler factor
Unknown
Orbital elements
Apogee altitude
464.116 km
Perigee altitude
461.984 km
Semi-major axis
6,841.187 km
Eccentricity
0.00016
Inclination
53.1598°
RAAN
151.6641°
Arg. of periapsis
93.5985°
True anomaly
266.50178°
Mean anomaly
266.5196°
Eccentric anomaly
266.51069°
Mean motion
3.83571 °/min
Orbital period
93.85 mins
BSTAR
0.00017548
Loading maneuver chart data...
Computing Atmospheric mass density...
Loading historical data...
Loading historical data...
Loading historical data...
Loading historical data...
Loading historical data...
Loading historical data...
Loading historical data...

Documentation

Showing up to 5 results
|